KE9LZ-9 Weather Reports


time (UTC)temp
C
wind
direction
speed
KPH
gust
KPH
rain 1hr
cm
rain 24hr
cm
rain mn
cm
humidity
%
barometer
mb
20260903174003 20 338 3.2 8.0 0.05 0.05 0.05 98 1014.6
20260903173004 20 104 1.6 3.2 0.05 0.05 0.05 99 1014.6
20260903172004 19 22 1.6 3.2 0.05 0.05 0.05 99 1014.4
20260903171003 19 302 1.6 3.2 0.03 0.03 0.03 99 1015.3
20260903170004 19 345 1.6 4.8 0.03 0.03 0.03 99 1015.2
20260903165004 18 294 1.6 3.2 0.00 0.00 0.00 99 1015.6
20260903164003 18 12 3.2 3.2 0.00 0.00 0.00 98 1015.6
20260903163003 19 314 1.6 3.2 0.00 0.00 0.00 98 1015.9
20260903162004 19 348 1.6 3.2 0.00 0.00 0.00 97 1015.4
20260903161003 19 336 3.2 3.2 0.00 0.00 0.00 97 1015.5
20260903160004 19 310 0.0 1.6 0.00 0.00 0.00 96 1015.3
20260903155004 19 340 0.0 1.6 0.00 0.00 0.00 96 1015.3
20260903153004 19 348 1.6 1.6 0.00 0.00 0.00 93 1015.6
20260903152003 20 26 1.6 3.2 0.00 0.00 0.00 92 1015.4
20260903151004 20 312 3.2 3.2 0.00 0.00 0.00 92 1015.1
20260903150004 20 14 0.0 3.2 0.00 0.00 0.00 92 1015.1
20260903144004 20 299 1.6 3.2 0.00 0.00 0.00 91 1014.7
20260903143004 20 348 1.6 4.8 0.00 0.00 0.00 91 1014.7
20260903142004 20 53 1.6 3.2 0.00 0.00 0.00 91 1014.5
20260903141004 19 35 1.6 3.2 0.00 0.00 0.00 91 1014.6
20260903140004 19 1 1.6 3.2 0.00 0.00 0.00 92 1014.8
20260903135003 19 349 0.0 3.2 0.00 0.00 0.00 92 1014.9
20260903134004 18 10 1.6 1.6 0.00 0.00 0.00 92 1015.0
20260903133004 18 24 0.0 3.2 0.00 0.00 0.00 92 1014.8
20260903132004 18 3 1.6 3.2 0.00 0.00 0.00 92 1014.9
20260903131004 18 314 1.6 3.2 0.00 0.00 0.00 93 1014.9
20260903130004 18 16 1.6 3.2 0.00 0.00 0.00 93 1014.8
20260903125004 18 6 1.6 3.2 0.00 0.00 0.00 93 1014.9
20260903124004 17 25 1.6 3.2 0.00 0.03 0.00 94 1014.9
20260903123004 17 320 1.6 3.2 0.00 0.03 0.00 94 1015.0
20260903122004 17 14 1.6 3.2 0.00 0.03 0.00 94 1014.8
20260903121003 17 3 1.6 3.2 0.00 0.03 0.00 95 1015.0
20260903114004 16 31 1.6 3.2 0.00 0.05 0.00 96 1015.0
20260903112004 16 17 0.0 3.2 0.00 0.05 0.00 96 1014.9
20260903111004 16 28 1.6 3.2 0.00 0.08 0.00 96 1014.8
20260903110004 16 0 1.6 3.2 0.00 0.15 0.00 96 1014.7
20260903105004 16 11 1.6 3.2 0.00 0.20 0.00 96 1014.7
20260903104005 16 15 1.6 3.2 0.00 0.23 0.00 97 1014.4
20260903102003 16 16 1.6 3.2 0.00 0.30 0.00 98 1014.6
20260903101003 16 29 1.6 3.2 0.00 0.38 0.00 99 1015.0
20260903100004 16 357 1.6 1.6 0.00 0.38 0.00 99 1014.8
20260903095004 16 16 1.6 1.6 0.00 0.38 0.00 99 1014.9
20260903094004 16 8 1.6 3.2 0.00 0.38 0.00 99 1014.5
20260903092004 16 27 1.6 1.6 0.00 0.38 0.00 99 1014.3
20260903091004 16 18 1.6 3.2 0.00 0.38 0.00 99 1014.4
20260903090004 16 14 1.6 1.6 0.00 0.38 0.00 99 1014.4
20260903085004 16 19 1.6 1.6 0.00 0.38 0.00 99 1014.2
20260903084004 16 5 1.6 3.2 0.00 0.38 0.00 99 1014.5
20260903083004 16 15 1.6 1.6 0.00 0.38 0.00 99 1014.5
20260903081004 16 36 1.6 3.2 0.00 0.38 0.00 99 1014.4
20260903080004 16 18 1.6 3.2 0.00 0.38 0.00 99 1014.4
20260903075004 16 346 0.0 1.6 0.00 0.38 0.00 99 1014.4
20260903074004 16 14 1.6 3.2 0.00 0.38 0.00 99 1014.4
20260903072004 16 345 0.0 1.6 0.00 0.38 0.00 99 1014.6
20260903071004 17 2 1.6 1.6 0.00 0.38 0.00 99 1014.5
20260903070004 17 22 0.0 3.2 0.00 0.38 0.00 99 1014.6
20260903065004 17 343 0.0 3.2 0.00 0.38 0.00 99 1014.7
20260903064004 17 41 0.0 3.2 0.00 0.38 0.00 99 1014.6
20260903063004 17 43 1.6 1.6 0.00 0.38 0.00 99 1014.7
20260903062004 17 47 0.0 1.6 0.00 0.38 0.00 99 1014.5
20260903061003 17 51 0.0 1.6 0.00 0.38 0.00 99 1014.5
20260903060004 17 31 1.6 3.2 0.00 0.38 0.00 99 1014.5
20260903055004 17 22 0.0 1.6 0.00 0.38 0.00 99 1014.5
20260903054004 17 24 0.0 1.6 0.00 0.38 0.00 99 1014.4
20260903053004 17 41 0.0 3.2 0.00 0.38 0.00 99 1014.3
20260903052004 17 35 0.0 3.2 0.00 0.38 0.00 99 1014.2
20260903051004 18 31 1.6 1.6 0.00 0.38 0.00 99 1014.3
20260903050003 18 34 0.0 1.6 0.00 0.38 0.00 99 1014.3
20260903045004 18 47 1.6 3.2 0.00 0.38 0.38 99 1014.2
20260903044004 18 23 1.6 3.2 0.00 0.38 0.38 99 1014.0
20260903043004 18 55 1.6 3.2 0.00 0.38 0.38 99 1014.0
20260903042004 18 19 1.6 3.2 0.00 0.38 0.38 99 1014.0
20260903041003 18 31 1.6 3.2 0.00 0.38 0.38 99 1014.0
20260903040004 18 3 0.0 3.2 0.00 0.38 0.38 99 1014.0
20260903035003 18 42 0.0 4.8 0.00 0.38 0.38 99 1013.9
20260903034004 18 4 1.6 3.2 0.00 0.38 0.38 99 1013.7
20260903032004 18 1 0.0 1.6 0.00 0.38 0.38 99 1013.6
20260903031004 18 5 0.0 1.6 0.00 0.38 0.38 99 1013.4
20260903030004 19 11 0.0 1.6 0.00 0.38 0.38 98 1013.5
20260903025004 19 322 0.0 1.6 0.00 0.38 0.38 98 1013.6
20260903024004 19 341 0.0 1.6 0.00 0.38 0.38 98 1013.5
20260903023004 19 1 0.0 1.6 0.00 0.38 0.38 98 1013.6
20260903022004 19 42 0.0 1.6 0.00 0.38 0.38 97 1013.4
20260903021004 19 47 0.0 1.6 0.00 0.38 0.38 97 1013.3
20260903015004 20 17 0.0 1.6 0.00 0.38 0.38 95 1013.0
20260903014003 20 345 0.0 0.0 0.00 0.38 0.38 95 1012.8
20260903013004 20 4 0.0 0.0 0.00 0.38 0.38 94 1013.0
20260903012004 20 15 0.0 1.6 0.00 0.38 0.38 93 1012.8
20260903011004 20 327 0.0 1.6 0.00 0.38 0.38 92 1012.7
20260903005004 21 0 0.0 1.6 0.00 0.38 0.38 91 1012.5
20260903004004 21 322 0.0 1.6 0.00 0.38 0.38 90 1012.5
20260903003004 22 339 0.0 1.6 0.00 0.38 0.38 89 1012.6
20260903002004 22 322 0.0 0.0 0.00 0.38 0.38 88 1012.6
20260903000004 24 356 0.0 1.6 0.00 0.38 0.38 84 1012.5
20260902235004 25 353 0.0 1.6 0.00 0.38 0.38 81 1012.5
20260902234003 25 33 0.0 1.6 0.00 0.38 0.38 76 1012.5
20260902233004 26 344 0.0 1.6 0.00 0.38 0.38 72 1012.5
20260902232004 27 299 0.0 3.2 0.00 0.38 0.38 69 1012.5
20260902231004 27 343 1.6 4.8 0.00 0.38 0.38 67 1012.7
20260902230004 27 322 1.6 4.8 0.00 0.38 0.38 67 1012.7
20260902225004 27 280 1.6 8.0 0.00 0.38 0.38 65 1012.7
20260902224003 28 296 3.2 4.8 0.00 0.38 0.38 63 1012.6
20260902223003 28 89 1.6 4.8 0.00 0.38 0.38 61 1012.8
20260902222004 28 263 3.2 8.0 0.00 0.38 0.38 61 1012.6
20260902220004 28 87 1.6 8.0 0.00 0.38 0.38 60 1012.6
20260902215003 28 280 1.6 4.8 0.00 0.38 0.38 59 1012.8
20260902214004 28 271 3.2 9.7 0.00 0.38 0.38 59 1012.8
20260902213004 28 294 1.6 9.7 0.00 0.38 0.38 59 1012.8
20260902211004 28 191 1.6 4.8 0.00 0.38 0.38 59 1012.8
20260902210004 28 301 4.8 9.7 0.00 0.38 0.38 59 1012.8
20260902205003 28 302 3.2 9.7 0.00 0.38 0.38 61 1012.9
20260902204004 27 296 4.8 8.0 0.00 0.38 0.38 62 1012.9
20260902203004 27 256 4.8 11.3 0.00 0.38 0.38 60 1013.2
20260902201004 28 327 3.2 4.8 0.00 0.38 0.38 58 1013.3
20260902200003 27 308 3.2 8.0 0.00 0.38 0.38 61 1013.1
20260902195004 27 313 1.6 4.8 0.00 0.38 0.38 63 1013.0
20260902194004 26 303 4.8 11.3 0.00 0.38 0.38 62 1013.3
20260902191004 26 263 3.2 9.7 0.00 0.38 0.38 61 1013.6
20260902190004 26 267 4.8 11.3 0.00 0.38 0.38 63 1013.5
20260902185004 26 336 3.2 9.7 0.00 0.38 0.38 62 1013.6
20260902184004 26 355 3.2 12.9 0.00 0.38 0.38 67 1013.7
20260902183004 26 307 3.2 11.3 0.00 0.38 0.38 63 1013.9
20260902182004 26 291 3.2 12.9 0.00 0.38 0.38 66 1013.8
20260902181004 25 287 3.2 11.3 0.00 0.38 0.38 70 1013.6
20260902180006 25 306 4.8 12.9 0.00 0.38 0.38 71 1013.8
20260902175004 24 303 6.4 11.3 0.00 0.38 0.38 76 1014.0